Location: *
(57.8420°S, 159.8600°W)
Time: 04:11:20
(UTC+00:00)

Cosmos 1980 - Pass Details

Date: 18 May 2021
Orbit: 838 x 848 km, 71.0° (Epoch: 20 June)

Event Time Altitude Azimuth Distance (km) Brightness Sun altitude
Rises 05:15:20 0° 322° (NW) 3,412 7.4 -21.7°
Reaches altitude 10° 05:17:46 10° 321° (NW) 2,481 6.7 -22.0°
Maximum altitude 05:23:30 83° 233° (SW) 869 3.7 -22.8°
Enters shadow 05:26:11 33° 147° (SSE) 1,399 4.5 -23.2°
